Вернуться в каталог

TDRS 13

АктивенСвязьGEO
NORAD 42915·PAYLOAD·🇺🇸 United States

Запущен Aug 18, 2017 с Cape Canaveral Space Force Station

Loading…

TLE

СвежийSource: Space-Track

Эпоха: Sep 14, 2026, 08:37 UTC

1 42915U 17047A   26257.35905172 -.00000106  00000-0  00000-0 0  9992
2 42915   3.4834   4.8632 0013652 121.3822 344.9636  1.00271882 33240

Отслеживайте TDRS 13 в реальном времени с AllMySat

Download on the App Store